Powrót do katalogu

STARLINK-31627

AktywnyŁącznośćVLEO
NORAD 59268·PAYLOAD·🇺🇸 United States

Wystrzelony Mar 19, 2024 z Vandenberg Space Force Base

Loading…

Następne Przeloty (najbliższe 24 godziny)

TLE

ŚwieżeSource: CelesTrak SupGP

Epoka: Sep 14, 2026, 22:49 UTC

1 59268C 24050Q   26257.95118056 -.00010470  00000+0 -30948-3 0  2575
2 59268  53.1593  19.4489 0001008  85.2815 135.8369 15.34382469    12

Śledź STARLINK-31627 w czasie rzeczywistym z AllMySat

Download on the App Store